Regional Weather Roundup
Issued by NWS Charleston, WV

Home | Current Version | Previous Version | Graphics & Text | Print | Product List | Glossary On
Versions: 1 2 3 4 5 6 7 8 9 10 11 12 13 14 15 16 17 18 19 20 21 22 23 24 25 26 27 28 29 30 31 32 33 34 35 36 37 38 39 40 41 42 43 44 45 46 47 48 49 50
000
ASUS41 KRLX 270710
RWRRLX
West Virginia Regional Weather Roundup
National Weather Service Charleston WV
200 AM EST SAT DEC 27 2014

Note: "fair" indicates few or no clouds below 12,000 feet with no
significant weather and/or obstructions to visibility.

WVZ003-270800-
Northern Panhandle of West Virginia

CITY           SKY/WX    TMP DP  RH WIND       PRES   REMARKS
WHEELING       MOCLDY    40  29  64 SW5       30.19S
$$

WVZ009-270800-
Northwest West Virginia

CITY           SKY/WX    TMP DP  RH WIND       PRES   REMARKS
PARKERSBURG    MOCLDY    36  31  82 CALM      30.23S
$$

WVZ006-270800-
Western West Virginia

CITY           SKY/WX    TMP DP  RH WIND       PRES   REMARKS
HUNTINGTON     CLOUDY    39  34  82 E3        30.22R
$$

WVZ015-270800-
West Central West Virginia

CITY           SKY/WX    TMP DP  RH WIND       PRES   REMARKS
CHARLESTON     CLOUDY    38  33  82 CALM      30.23R
$$

WVZ022-031-270800-
North Central West Virginia

CITY           SKY/WX    TMP DP  RH WIND       PRES   REMARKS
CLARKSBURG     MOCLDY    32  29  88 CALM      30.20F
MORGANTOWN     PTCLDY    38  24  57 CALM      30.20F
$$

WVZ025-035-042-045-270800-
Southern West Virginia

CITY           SKY/WX    TMP DP  RH WIND       PRES   REMARKS
BECKLEY        CLOUDY    37  25  61 CALM      30.21S
LOGAN          PTSUNNY   46  25  42 CALM      30.21S
BLUEFIELD      CLOUDY    47  12  24 E3        30.21R
LEWISBURG      MOCLDY    32  30  92 N3        30.24R
$$

WVZ047-270800-
Northern Mountains of West Virginia

CITY           SKY/WX    TMP DP  RH WIND       PRES   REMARKS
ELKINS         MOCLDY    28  27  96 CALM      30.23F
$$

WVZ052-270800-
Eastern Panhandle of West Virginia

CITY           SKY/WX    TMP DP  RH WIND       PRES   REMARKS
MARTINSBURG    MOCLDY    31  25  78 NW5       30.23R
PETERSBURG     MOCLDY    32  31  98 CALM      30.25R
$$


USA.gov is the U.S. government's official web portal to all federal, state and local government web resources and services.